Location: �chenoz-la-M�line
(47.6009°N, 6.1354°E)
Time: 12:57:41
(UTC+00:00)

Cosmos 2142 Rocket - Pass Details

Date: 27 January 2021
Orbit: 952 x 1005 km, 83.0° (Epoch: 02 March)

Event Time Altitude Azimuth Distance (km) Brightness Sun altitude
Rises 05:42:39 0° 190° (S) 3,697 7.6 -14.4°
Reaches altitude 10° 05:45:11 10° 192° (SSW) 2,746 6.9 -14.0°
Maximum altitude 05:51:29 79° 279° (W) 1,004 4.5 -12.9°
Drops below altitude 10° 05:57:45 10° 7° (N) 2,727 6.8 -11.9°
Sets 06:00:16 0° 9° (N) 3,671 7.5 -11.5°
